sat.trackr.live / text

‹ back to catalog

STARLINK-31055

NORAD 58539 · 2023-192J

PAYLOAD ACTIVE UNKNOWN

§ Identity

Operator
Country
US
Launch date
2023-12-08
Launch site
AFWTR
Launch vehicle
Mass (kg)
RCS (m²)

Purposes: comms

External: N2YO · Heavens-Above · Gunter

§ Orbital elements

Epoch: 2026-05-25T03:46:26.432832Z

Period
93.85 min
Inclination
53.1613°
Eccentricity
0.0000973
Mean motion
15.34394763 rev/d
Perigee alt
462.1 km
Apogee alt
463.4 km
Semi-major
6,840.9 km
B*
4.9789e-5
RAAN
66.7943°
Arg perigee
97.6693°
Mean anomaly
262.4420°
Rev number
13,770

§ Raw data

STARLINK-310551 58539U 23192J   26145.15725038  .00001306  00000+0  49789-4 0  99962 58539  53.1613  66.7943 0000973  97.6693 262.4420 15.34394763137708

JSON: /api/v1/satellites/58539 · /tle

For live sub-satellite position, see the globe view (requires WebGL).

§ Visibility from observer

Set your observer location to see the next 7 days of passes ≥ 10°. The values pass through the URL so the page stays shareable.

No JS? Fill the form by hand. The geolocation button needs JavaScript.